User: anonymous   Login
Location: Wanzleben
(52.0609°N, 11.4408°E)
Time: 01:51:29
(UTC+00:00)
Language:

Cosmos 2263 Rocket - Orbit

View from above orbital plane
View from above orbital plane
View from above satellite
View from above satellite

Ground track
Ground track

The orbit data is extracted from the following two-line orbital elements,

1 22803U 93059B   21136.35766553 -.00000034  00000-0  72250-5 0  9993
2 22803  70.9881 117.6935 0017012   1.3772 358.7395 14.16833808430451
Epoch (UTC): 16 May 2021 08:35:02
Eccentricity: 0.0017012
inclination: 70.9881°
perigee height: 824 km
apogee height: 848 km
right ascension of ascending node: 117.6935°
argument of perigee: 1.3772°
revolutions per day: 14.16833808
mean anomaly at epoch: 358.7395°
orbit number at epoch: 43045

The dashed part of the orbit path shows where the satellite is in the earth's shadow,  

DLR